• în Republica Moldova
  • Lista ţărilor
  • Pe 7 zile
  • Temperatura apei
  • Hartă satelitară
  • Meteo pe hartă
  • Widget-uri
  • user-avatar
    Intrare

    Meteo pe oră la Quito

    Astăzi, 13 Decembrie, Joi

    Timp Temperatura Precipitaţii Vânt Presiune Umiditate
    00:00 +16°C° 0 mm 2 m/s 622 mmHg 76%
    01:00 +16°C° 0 mm 2 m/s 622 mmHg 82%
    02:00 +15°C° 0 mm 1 m/s 622 mmHg 86%
    03:00 +15°C° 0 mm 1 m/s 622 mmHg 89%
    04:00 +14°C° 0 mm 1 m/s 622 mmHg 93%
    05:00 +16°C° 0 mm 1 m/s 623 mmHg 90%
    06:00 +18°C° 0 mm 1 m/s 624 mmHg 86%
    07:00 +19°C° 0 mm 1 m/s 625 mmHg 83%
    08:00 +22°C° 0.4 mm 1 m/s 625 mmHg 75%
    09:00 +24°C° 0.4 mm 1 m/s 626 mmHg 67%
    10:00 +27°C° 0.4 mm 1 m/s 627 mmHg 59%
    11:00 +27°C° 0.3 mm 1 m/s 626 mmHg 56%
    12:00 +28°C° 0.3 mm 1 m/s 626 mmHg 53%
    13:00 +29°C° 0.3 mm 1 m/s 626 mmHg 50%
    14:00 +28°C° 0.1 mm 1 m/s 625 mmHg 53%
    15:00 +27°C° 0.1 mm 1 m/s 624 mmHg 56%
    16:00 +26°C° 0.1 mm 1 m/s 623 mmHg 59%
    17:00 +24°C° 0.4 mm 1 m/s 623 mmHg 66%
    18:00 +22°C° 0.4 mm 1 m/s 622 mmHg 74%
    19:00 +20°C° 0.4 mm 1 m/s 622 mmHg 81%
    20:00 +20°C° 0 mm 1 m/s 623 mmHg 82%
    21:00 +19°C° 0 mm 1 m/s 623 mmHg 82%
    22:00 +19°C° 0 mm 1 m/s 623 mmHg 83%
    23:00 +18°C° 0 mm 1 m/s 623 mmHg 84%

    Mâine, 14 Decembrie, Vineri

    Timp Temperatura Precipitaţii Vânt Presiune Umiditate
    00:00 +18°C° 0 mm 1 m/s 623 mmHg 84%
    01:00 +18°C° 0 mm 1 m/s 623 mmHg 85%
    02:00 +18°C° 0.1 mm 1 m/s 623 mmHg 87%
    03:00 +16°C° 0.1 mm 1 m/s 623 mmHg 89%
    04:00 +16°C° 0.1 mm 1 m/s 622 mmHg 91%
    05:00 +18°C° 0 mm 1 m/s 623 mmHg 88%
    06:00 +19°C° 0 mm 1 m/s 624 mmHg 86%
    07:00 +20°C° 0 mm 1 m/s 624 mmHg 84%
    08:00 +22°C° 0.5 mm 1 m/s 625 mmHg 76%
    09:00 +25°C° 0.5 mm 1 m/s 626 mmHg 68%
    10:00 +25°C° 0.5 mm 0 m/s 627 mmHg 60%
    11:00 +27°C° 0.2 mm 1 m/s 626 mmHg 57%
    12:00 +28°C° 0.2 mm 1 m/s 625 mmHg 53%
    13:00 +28°C° 0.2 mm 1 m/s 625 mmHg 49%
    14:00 +27°C° 0.2 mm 1 m/s 624 mmHg 54%
    15:00 +26°C° 0.2 mm 1 m/s 624 mmHg 59%
    16:00 +26°C° 0.2 mm 1 m/s 623 mmHg 64%
    17:00 +24°C° 0.2 mm 1 m/s 623 mmHg 71%
    18:00 +22°C° 0.2 mm 1 m/s 623 mmHg 77%
    19:00 +19°C° 0.2 mm 2 m/s 623 mmHg 84%
    20:00 +18°C° 0.2 mm 2 m/s 623 mmHg 86%
    21:00 +18°C° 0.2 mm 2 m/s 623 mmHg 89%
    22:00 +17°C° 0.2 mm 2 m/s 624 mmHg 91%
    23:00 +17°C° 0 mm 2 m/s 623 mmHg 92%

    Poimâine, 15 Decembrie, Sâmbătă

    Timp Temperatura Precipitaţii Vânt Presiune Umiditate
    00:00 +17°C° 0 mm 2 m/s 623 mmHg 93%
    01:00 +16°C° 0 mm 2 m/s 623 mmHg 93%
    02:00 +16°C° 0 mm 2 m/s 623 mmHg 94%
    03:00 +16°C° 0 mm 2 m/s 622 mmHg 95%
    04:00 +16°C° 0 mm 2 m/s 622 mmHg 96%
    05:00 +16°C° 0 mm 2 m/s 623 mmHg 94%
    06:00 +17°C° 0 mm 2 m/s 623 mmHg 92%
    07:00 +18°C° 0 mm 2 m/s 624 mmHg 90%
    08:00 +20°C° 0.3 mm 2 m/s 625 mmHg 82%
    09:00 +23°C° 0.3 mm 2 m/s 625 mmHg 75%
    10:00 +25°C° 0.3 mm 2 m/s 626 mmHg 67%
    11:00 +25°C° 0.9 mm 1 m/s 625 mmHg 69%
    12:00 +25°C° 0.9 mm 1 m/s 625 mmHg 71%
    13:00 +24°C° 0.9 mm 1 m/s 624 mmHg 74%
    14:00 +24°C° 1.2 mm 1 m/s 624 mmHg 76%
    15:00 +24°C° 1.2 mm 1 m/s 623 mmHg 78%
    16:00 +23°C° 1.2 mm 1 m/s 623 mmHg 80%
    17:00 +22°C° 0.9 mm 1 m/s 623 mmHg 84%
    18:00 +21°C° 0.9 mm 1 m/s 623 mmHg 88%
    19:00 +18°C° 0.9 mm 2 m/s 623 mmHg 92%
    20:00 +18°C° 0.2 mm 2 m/s 624 mmHg 93%
    21:00 +18°C° 0.2 mm 2 m/s 624 mmHg 94%
    22:00 +17°C° 0.2 mm 2 m/s 624 mmHg 95%
    23:00 +17°C° 0.2 mm 2 m/s 624 mmHg 95%

    16 Decembrie, Duminică

    Timp Temperatura Precipitaţii Vânt Presiune Umiditate
    00:00 +17°C° 0.2 mm 3 m/s 623 mmHg 95%
    01:00 +17°C° 0.2 mm 3 m/s 623 mmHg 95%
    02:00 +16°C° 0 mm 3 m/s 623 mmHg 95%
    03:00 +16°C° 0 mm 3 m/s 623 mmHg 96%
    04:00 +16°C° 0 mm 2 m/s 622 mmHg 96%
    05:00 +16°C° 0 mm 2 m/s 623 mmHg 95%
    06:00 +17°C° 0 mm 2 m/s 624 mmHg 93%
    07:00 +18°C° 0 mm 2 m/s 624 mmHg 91%
    08:00 +20°C° 0.1 mm 2 m/s 625 mmHg 81%
    09:00 +23°C° 0.1 mm 2 m/s 625 mmHg 72%
    10:00 +25°C° 0.1 mm 2 m/s 626 mmHg 62%
    11:00 +26°C° 0.4 mm 1 m/s 625 mmHg 62%
    12:00 +26°C° 0.4 mm 1 m/s 625 mmHg 62%
    13:00 +27°C° 0.4 mm 1 m/s 624 mmHg 62%
    14:00 +26°C° 1.2 mm 1 m/s 624 mmHg 67%
    15:00 +25°C° 1.2 mm 1 m/s 623 mmHg 73%
    16:00 +23°C° 1.2 mm 1 m/s 623 mmHg 78%
    17:00 +22°C° 0.7 mm 1 m/s 623 mmHg 82%
    18:00 +19°C° 0.7 mm 2 m/s 623 mmHg 87%
    19:00 +18°C° 0.7 mm 2 m/s 623 mmHg 92%
    20:00 +17°C° 0.1 mm 2 m/s 623 mmHg 93%
    21:00 +17°C° 0.1 mm 2 m/s 623 mmHg 93%
    22:00 +17°C° 0.1 mm 2 m/s 624 mmHg 94%
    23:00 +16°C° 0 mm 2 m/s 623 mmHg 94%

    17 Decembrie, Luni

    Timp Temperatura Precipitaţii Vânt Presiune Umiditate
    00:00 +16°C° 0 mm 2 m/s 623 mmHg 95%
    01:00 +16°C° 0 mm 2 m/s 622 mmHg 95%
    02:00 +16°C° 0 mm 2 m/s 622 mmHg 95%
    03:00 +16°C° 0 mm 2 m/s 622 mmHg 94%
    04:00 +16°C° 0 mm 2 m/s 622 mmHg 94%
    05:00 +16°C° 0 mm 2 m/s 623 mmHg 93%
    06:00 +18°C° 0 mm 1 m/s 623 mmHg 91%
    07:00 +19°C° 0 mm 1 m/s 624 mmHg 89%
    08:00 +21°C° 0.1 mm 1 m/s 625 mmHg 80%
    09:00 +23°C° 0.1 mm 1 m/s 625 mmHg 70%
    10:00 +26°C° 0.1 mm 1 m/s 626 mmHg 61%
    11:00 +26°C° 1.1 mm 1 m/s 625 mmHg 63%
    12:00 +26°C° 1.1 mm 1 m/s 625 mmHg 65%
    13:00 +25°C° 1.1 mm 0 m/s 624 mmHg 67%
    14:00 +25°C° 1.4 mm 1 m/s 624 mmHg 72%
    15:00 +24°C° 1.4 mm 1 m/s 623 mmHg 77%
    16:00 +23°C° 1.4 mm 1 m/s 622 mmHg 81%
    17:00 +21°C° 0.3 mm 1 m/s 622 mmHg 85%
    18:00 +20°C° 0.3 mm 1 m/s 622 mmHg 88%
    19:00 +19°C° 0.3 mm 1 m/s 622 mmHg 91%
    20:00 +19°C° 0.4 mm 1 m/s 623 mmHg 92%
    21:00 +17°C° 0.4 mm 2 m/s 623 mmHg 92%
    22:00 +17°C° 0.4 mm 2 m/s 623 mmHg 93%
    23:00 +17°C° 0.3 mm 2 m/s 623 mmHg 93%

    18 Decembrie, Marţi

    Timp Temperatura Precipitaţii Vânt Presiune Umiditate
    00:00 +17°C° 0.3 mm 2 m/s 622 mmHg 93%
    01:00 +16°C° 0.3 mm 2 m/s 622 mmHg 93%
    02:00 +16°C° 0 mm 2 m/s 622 mmHg 94%
    03:00 +16°C° 0 mm 2 m/s 622 mmHg 95%
    04:00 +15°C° 0 mm 1 m/s 622 mmHg 96%
    05:00 +16°C° 0 mm 1 m/s 622 mmHg 93%
    06:00 +18°C° 0 mm 1 m/s 623 mmHg 91%
    07:00 +19°C° 0 mm 1 m/s 624 mmHg 88%
    08:00 +20°C° 0.6 mm 2 m/s 624 mmHg 82%
    09:00 +23°C° 0.6 mm 2 m/s 624 mmHg 75%
    10:00 +25°C° 0.6 mm 2 m/s 624 mmHg 68%
    11:00 +25°C° 1 mm 2 m/s 624 mmHg 67%
    12:00 +26°C° 1 mm 2 m/s 624 mmHg 65%
    13:00 +26°C° 1 mm 2 m/s 623 mmHg 63%
    14:00 +26°C° 1.1 mm 2 m/s 623 mmHg 66%
    15:00 +26°C° 1.1 mm 2 m/s 622 mmHg 69%
    16:00 +25°C° 1.1 mm 2 m/s 621 mmHg 73%
    17:00 +23°C° 0.3 mm 2 m/s 621 mmHg 78%
    18:00 +21°C° 0.3 mm 2 m/s 621 mmHg 83%
    19:00 +19°C° 0.3 mm 2 m/s 621 mmHg 88%
    20:00 +18°C° 1.3 mm 2 m/s 621 mmHg 90%
    21:00 +18°C° 1.3 mm 2 m/s 621 mmHg 92%
    22:00 +18°C° 1.3 mm 2 m/s 621 mmHg 94%
    23:00 +17°C° 0.7 mm 2 m/s 621 mmHg 94%
    Arată mai mult